Location: Newark
(37.3396°N, 6.0260°W)
Time: 23:24:06
(UTC+00:00)

Tiangong 2 - Visible Passes

Search period start: 18 March 2019 00:00
Search period end: 28 March 2019 00:00
Orbit: 379 x 390 km, 42.8° (Epoch: 18 March)

Date Brightness Start Highest point End Pass type
(mag) Time Alt. Az. Time Alt. Az. Time Alt. Az.
18 Mar 2.5 05:25:02 17° NW 05:26:59 32° N 05:29:54 10° ENE visible
19 Mar 3.3 04:28:18 24° NE 04:28:18 24° NE 04:30:12 10° ENE visible
19 Mar 1.5 06:01:19 10° WNW 06:04:27 60° NNE 06:07:37 10° ESE visible
20 Mar 2.1 05:03:51 29° NNW 05:04:55 41° NNE 05:07:58 10° E visible
21 Mar 4.1 04:07:14 17° ENE 04:07:14 17° ENE 04:08:14 10° ENE visible
21 Mar 1.0 05:39:28 13° WNW 05:42:17 81° SSW 05:45:27 10° ESE visible
22 Mar 1.5 04:42:57 59° NE 04:42:57 59° NE 04:45:55 10° ESE visible
23 Mar 1.5 05:18:47 28° W 05:19:59 43° SSW 05:23:01 10° SE visible
24 Mar 3.4 04:22:32 20° ESE 04:22:32 20° ESE 04:23:42 10° ESE visible
24 Mar 3.3 05:55:27 10° WSW 05:56:53 12° SW 05:58:19 10° SSW visible
25 Mar 2.9 04:58:43 19° S 04:58:43 19° S 05:00:09 10° SSE visible
